Location: Biharia
(46.4333°N, 22.8000°E)
Time: 03:41:56
(UTC+00:00)

Cosmos 494 Rocket - Pass Details

Date: 27 May 2022
Orbit: 742 x 770 km, 74.1° (Epoch: 05 July)

Event Time Altitude Azimuth Distance (km) Brightness Sun altitude
Rises 23:49:58 0° 324° (NW) 3,191 7.7 -19.5°
Reaches altitude 10° 23:52:57 10° 307° (NW) 2,262 6.6 -19.3°
Maximum altitude 23:56:24 19° 264° (W) 1,744 5.6 -19.1°
Enters shadow 23:56:46 18° 258° (WSW) 1,749 5.5 -19.1°
